This is the latest recevied weather packets stored in our database for station/object OE3MHU-13. If no packets are shown the sender has not sent any weather packets the latest 10 day(s).
| Time | Temp. | Humidity | Pressure | Rain* | Wind** | Luminosity | Snow |
|---|---|---|---|---|---|---|---|
| 1778159185 | 21.11° C | 47% | 1013.8 hPa | 0 mm | - | - | - |
| 1778158884 | 20.56° C | 47% | 1013.8 hPa | 0 mm | - | - | - |
| 1778158583 | 21.11° C | 46% | 1013.8 hPa | 0 mm | - | - | - |
| 1778158281 | 21.11° C | 45% | 1013.8 hPa | 0 mm | - | - | - |
| 1778157982 | 21.67° C | 45% | 1013.8 hPa | 0 mm | - | - | - |
| 1778157681 | 21.67° C | 45% | 1013.8 hPa | 0 mm | - | - | - |
| 1778157382 | 21.67° C | 44% | 1013.9 hPa | 0 mm | - | - | - |
| 1778157081 | 22.22° C | 44% | 1013.9 hPa | 0 mm | - | - | - |
| 1778156781 | 21.67° C | 46% | 1013.9 hPa | 0 mm | - | - | - |
| 1778156482 | 21.11° C | 46% | 1013.9 hPa | 0 mm | - | - | - |
| 1778156182 | 21.11° C | 47% | 1013.9 hPa | 0 mm | - | - | - |
| 1778155881 | 20.56° C | 49% | 1014.1 hPa | 0 mm | - | - | - |
| 1778155582 | 20° C | 49% | 1014.2 hPa | 0 mm | - | - | - |
| 1778155281 | 20° C | 48% | 1014.2 hPa | 0 mm | - | - | - |
| 1778154981 | 20° C | 48% | 1014.3 hPa | 0 mm | - | - | - |
| 1778154681 | 20.56° C | 46% | 1014.2 hPa | 0 mm | - | - | - |
| 1778154380 | 21.11° C | 46% | 1014.2 hPa | 0 mm | - | - | - |
| 1778154079 | 20.56° C | 48% | 1014.2 hPa | 0 mm | - | - | - |
| 1778153779 | 20.56° C | 48% | 1014.3 hPa | 0 mm | - | - | - |
| 1778153480 | 20.56° C | 49% | 1014.3 hPa | 0 mm | - | - | - |
| 1778153177 | 20° C | 50% | 1014.6 hPa | 0 mm | - | - | - |
| 1778152878 | 20° C | 50% | 1014.4 hPa | 0 mm | - | - | - |
| 1778152575 | 20° C | 52% | 1014.6 hPa | 0 mm | - | - | - |
| 1778152274 | 19.44° C | 53% | 1014.6 hPa | 0 mm | - | - | - |
| 1778151976 | 18.89° C | 53% | 1014.6 hPa | 0 mm | - | - | - |
* Rain latest hour (hover to see other rain measurements)
** Current wind speed in m/s (hover to see current wind gust speed)